^^
Saratoga-Weather Station Historical Data
Daily Summary for July 24, 2021 Units:  English    Metric   Both
Daily Weekly Monthly Yearly Custom
  High: Low: Average:
Temperature: 67.5 °F 65.3 °F 66 °F
Dew Point: 58.3 °F 56.5 °F 57.4 °F
Humidity: 76% 72% 74%
Wind Speed: 2mph 0mph 0.3mph
Wind Gust: 2mph - -
Wind- - SSW
Pressure: 29.8 in 29.7 in -
Precipitation: 0 in    
Historical Graphs
 
 
Tabular Data for July 24, 2021
Time Temperature Dew Point Pressure Wind Wind Speed Wind Gust Humidity Rainfall Rate (Hourly) solar
00:02 67.3 °F 57.9 °F 29.8 in Calm   1 mph 72% 0 in 0 W/m2
00:07 67.5 °F 58.1 °F 29.8 in Calm   1 mph 72% 0 in 0 W/m2
00:12 67.5 °F 58.1 °F 29.8 in Calm   1 mph 72% 0 in 0 W/m2
00:17 67.3 °F 58.3 °F 29.8 in Calm   2 mph 73% 0 in 0 W/m2
00:22 67.3 °F 58.3 °F 29.8 in SE 0.9 mph 1 mph 73% 0 in 0 W/m2
00:27 66.9 °F 58.3 °F 29.8 in Calm     74% 0 in 0 W/m2
00:32 66.7 °F 57.7 °F 29.8 in Calm     73% 0 in 0 W/m2
00:37 66.6 °F 57.6 °F 29.8 in WSW 0.9 mph 2 mph 73% 0 in 0 W/m2
00:42 66.6 °F 57.6 °F 29.8 in SW 0.9 mph 2 mph 73% 0 in 0 W/m2
00:47 66.4 °F 57.4 °F 29.8 in SW 0.9 mph 2 mph 73% 0 in 0 W/m2
00:52 66.4 °F 57.9 °F 29.8 in SW 2 mph 2 mph 74% 0 in 0 W/m2
00:57 66.4 °F 57.9 °F 29.8 in SW 2 mph 2 mph 74% 0 in 0 W/m2
01:02 66.4 °F 58.3 °F 29.8 in Calm   2 mph 75% 0 in 0 W/m2
01:07 66.4 °F 58.3 °F 29.8 in SW 0.9 mph 2 mph 75% 0 in 0 W/m2
01:12 66.4 °F 58.3 °F 29.8 in SW 0.9 mph 1 mph 75% 0 in 0 W/m2
01:17 66.2 °F 58.1 °F 29.8 in SW 0.9 mph 2 mph 75% 0 in 0 W/m2
01:22 66 °F 57.6 °F 29.8 in Calm     74% 0 in 0 W/m2
01:27 65.8 °F 57.4 °F 29.8 in Calm     74% 0 in 0 W/m2
01:32 65.8 °F 57.4 °F 29.8 in Calm     74% 0 in 0 W/m2
01:37 65.7 °F 57.2 °F 29.8 in Calm     74% 0 in 0 W/m2
01:42 65.7 °F 57.6 °F 29.8 in Calm     75% 0 in 0 W/m2
01:47 65.5 °F 57.4 °F 29.8 in Calm     75% 0 in 0 W/m2
01:52 65.5 °F 57.7 °F 29.8 in Calm     76% 0 in 0 W/m2
01:57 65.5 °F 57.4 °F 29.8 in Calm   1 mph 75% 0 in 0 W/m2
02:02 65.7 °F 57.6 °F 29.8 in Calm     75% 0 in 0 W/m2
02:07 65.7 °F 57.2 °F 29.8 in Calm     74% 0 in 0 W/m2
02:12 65.7 °F 57.2 °F 29.8 in Calm   1 mph 74% 0 in 0 W/m2
02:17 65.7 °F 57.2 °F 29.8 in South 0.9 mph 2 mph 74% 0 in 0 W/m2
02:22 65.7 °F 56.8 °F 29.8 in Calm   1 mph 73% 0 in 0 W/m2
02:27 65.7 °F 56.8 °F 29.8 in Calm   2 mph 73% 0 in 0 W/m2
02:32 65.8 °F 57 °F 29.8 in Calm     73% 0 in 0 W/m2
02:37 65.8 °F 56.5 °F 29.8 in Calm   1 mph 72% 0 in 0 W/m2
02:42 66 °F 56.7 °F 29.8 in SSW 0.9 mph 1 mph 72% 0 in 0 W/m2
02:47 66.2 °F 57.2 °F 29.8 in SSW 2 mph 2 mph 73% 0 in 0 W/m2
02:52 66.2 °F 57.2 °F 29.8 in SSW 0.9 mph 1 mph 73% 0 in 0 W/m2
02:57 66 °F 57.6 °F 29.8 in Calm     74% 0 in 0 W/m2
03:02 65.8 °F 57.4 °F 29.8 in Calm     74% 0 in 0 W/m2
03:07 65.8 °F 57 °F 29.8 in Calm     73% 0 in 0 W/m2
03:12 65.7 °F 56.8 °F 29.8 in Calm     73% 0 in 0 W/m2
03:17 65.7 °F 57.2 °F 29.8 in Calm     74% 0 in 0 W/m2
03:22 65.5 °F 57 °F 29.7 in Calm     74% 0 in 0 W/m2
03:27 65.5 °F 57 °F 29.8 in South 0.9 mph 2 mph 74% 0 in 0 W/m2
03:32 65.7 °F 56.8 °F 29.8 in South 0.9 mph 1 mph 73% 0 in 0 W/m2
03:37 65.8 °F 57 °F 29.8 in South 0.9 mph 1 mph 73% 0 in 0 W/m2
03:42 65.8 °F 57 °F 29.8 in Calm   1 mph 73% 0 in 0 W/m2
03:47 65.8 °F 57 °F 29.8 in Calm     73% 0 in 0 W/m2
03:52 65.8 °F 57 °F 29.8 in Calm     73% 0 in 0 W/m2
03:57 65.8 °F 57 °F 29.8 in Calm     73% 0 in 0 W/m2
04:02 65.7 °F 56.8 °F 29.8 in Calm     73% 0 in 0 W/m2
04:07 65.7 °F 57.2 °F 29.8 in Calm     74% 0 in 0 W/m2
04:12 65.7 °F 57.2 °F 29.8 in Calm     74% 0 in 0 W/m2
04:17 65.5 °F 57 °F 29.8 in Calm     74% 0 in 0 W/m2
04:22 65.5 °F 57.4 °F 29.8 in Calm     75% 0 in 0 W/m2
04:27 65.5 °F 57.4 °F 29.8 in Calm     75% 0 in 0 W/m2
04:32 65.5 °F 57.7 °F 29.8 in Calm     76% 0 in 0 W/m2
04:37 65.3 °F 57.2 °F 29.8 in Calm     75% 0 in 0 W/m2
Juneau County Weather
Compliments of Weather Underground - 2 mb